[[{"header":{"parameterUnit":"m.s-1","parameterCategory":1,"la1":30.2991,"la2":30.254,"lo1":-89.0895,"lo2":-89.0444,"dx":0.0017,"dy":0.0017,"nx":28,"ny":28,"refTime":"2022-11-07T09:00:00:Z","depth":0,"parameterNumber":2,"parameterNumberName":"U-component_of_WINDS"},"data":[0,0,0,0,0,0,0,0,0,0,0,0,0,0,0,0,0,0,0,0,0,0,0,0,0,0,0,0,0,0,0,0,0,0,0,0,0,0,0,0,0,0,0,0,0,0,0,0,0,0,0,0,0,0,0,0,0,0,-0.1306,-0.1305,0,-0.1207,-0.1206,-0.1205,-0.1206,-0.1207,-0.1208,-0.121,-0.1109,-0.1106,-0.1102,0,0,0,0,0,0,0,0,0,0,0,0,0,-0.1499,-0.1496,-0.1307,-0.1305,-0.1304,-0.1208,-0.1206,-0.1205,-0.1206,-0.1207,-0.1209,-0.121,-0.1111,-0.1106,-0.1102,0,0,0,0,0,0,0,0,0,0,0,0,0,-0.141,-0.1495,-0.1307,-0.1293,-0.129,-0.1208,-0.1206,-0.1205,-0.1205,-0.1207,-0.1209,-0.1211,-0.1112,-0.1107,-0.1101,-0.1026,0,0,-0.1083,-0.1081,0,0,0,0,0,0,0,0,-0.1415,-0.1403,-0.1296,-0.1294,-0.1291,-0.1221,-0.1238,-0.1145,-0.1205,-0.1238,-0.121,-0.1212,-0.1145,-0.1137,-0.1114,-0.1022,-0.1017,-0.1083,-0.1079,-0.1077,-0.1075,0,0,0,0,0,0,0,-0.1421,-0.1407,-0.1267,-0.1295,-0.1291,-0.1292,-0.1282,-0.122,-0.1182,-0.1235,-0.1235,-0.1223,-0.1144,-0.112,-0.1112,-0.1016,-0.1083,-0.1078,-0.1074,-0.1072,-0.0861,-0.0859,0,0,0,0,0,0,-0.143,-0.1412,-0.1271,-0.1264,-0.1359,-0.1287,-0.1275,-0.1241,-0.1182,-0.1175,-0.1221,-0.1223,-0.1128,-0.1118,-0.1108,-0.1019,-0.1077,-0.1071,-0.1068,-0.0863,-0.086,-0.0858,0,0,0,0,0,0,-0.1434,-0.1417,-0.1275,-0.1338,-0.132,-0.1282,-0.1244,-0.1238,-0.1214,-0.1172,-0.1166,-0.1203,-0.113,-0.1116,-0.1047,-0.1015,-0.1069,-0.1063,-0.0865,-0.0862,-0.0859,-0.0839,0,0,0,0,0,0,-0.1439,-0.1419,-0.1389,-0.1337,-0.1317,-0.1214,-0.1242,-0.1235,-0.1204,-0.1205,-0.1153,-0.1146,-0.113,-0.1056,-0.1041,-0.1008,-0.1059,-0.0868,-0.0864,-0.086,-0.0842,-0.0835,-0.0829,0,0,0,0,0,-0.1446,-0.1387,-0.1387,-0.137,-0.1279,-0.1212,-0.1201,-0.1183,-0.1201,-0.1172,-0.1145,-0.1148,-0.1021,-0.1049,-0.1033,-0.0997,-0.087,-0.0865,-0.086,-0.0845,-0.0837,-0.083,0,0,0,0,0,0,-0.1435,-0.138,-0.138,-0.1302,-0.1262,-0.1213,-0.1175,-0.1174,-0.1128,-0.1132,-0.1112,-0.11,-0.1032,-0.1007,-0.1039,-0.0924,-0.0948,-0.094,-0.0942,-0.0934,-0.0927,-0.0935,-0.1054,0,0,0,0,0,-0.1424,-0.1374,-0.1328,-0.1264,-0.1244,-0.1213,-0.1183,-0.1173,-0.1131,-0.1114,-0.1083,-0.1043,-0.0994,-0.0962,-0.0915,-0.0839,-0.0829,-0.0807,-0.08,-0.0795,-0.0789,-0.0749,-0.074,-0.0842,-0.0842,-0.0842,0,0,-0.1399,-0.1363,-0.1333,-0.1261,-0.1229,-0.1179,-0.1199,-0.1144,-0.1108,-0.1106,-0.104,-0.1015,-0.0969,-0.0897,-0.0864,-0.0875,-0.0758,-0.0789,-0.0785,-0.0781,-0.0744,-0.0734,-0.0725,-0.0839,-0.0839,-0.084,0,0,-0.133,-0.1296,-0.124,-0.1208,-0.116,-0.114,-0.1126,-0.1078,-0.1062,-0.0994,-0.0993,-0.095,-0.0865,-0.0834,-0.0806,-0.0728,-0.073,-0.0713,-0.068,-0.0642,-0.0634,-0.0627,-0.0601,-0.0592,-0.0706,-0.0706,-0.0706,0,-0.1306,-0.123,-0.1212,-0.1158,-0.1128,-0.1124,-0.1068,-0.1038,-0.0977,-0.0956,-0.097,-0.0866,-0.0834,-0.0756,-0.0737,-0.0714,-0.07,-0.0719,-0.0637,-0.0629,-0.0622,-0.0598,-0.0588,-0.0705,-0.0705,-0.0705,-0.0705,0,-0.1205,-0.1152,-0.1113,-0.1054,-0.1019,-0.0964,-0.0939,-0.0906,-0.09,-0.0879,-0.0812,-0.0775,-0.0721,-0.0701,-0.0694,-0.0623,-0.0631,-0.0641,-0.0665,-0.0611,-0.0588,-0.0578,-0.0703,-0.0703,-0.0704,-0.0704,0,0,-0.1125,-0.1058,-0.1044,-0.1019,-0.0966,-0.0925,-0.0872,-0.0819,-0.0792,-0.0751,-0.0707,-0.0637,-0.0646,-0.0615,-0.0604,-0.057,-0.0514,-0.0584,-0.0583,-0.0574,-0.0436,-0.0431,-0.042,-0.0514,-0.0513,-0.0511,-0.0441,0,-0.1051,-0.0955,-0.0938,-0.0855,-0.0808,-0.0805,-0.0759,-0.0722,-0.0702,-0.066,-0.0638,-0.0589,-0.0604,-0.0586,-0.0552,-0.0528,-0.0486,-0.0532,-0.0475,-0.0473,-0.0488,-0.0407,-0.04,-0.0336,-0.0431,-0.043,-0.0428,0,-0.0953,-0.0909,-0.0821,-0.0777,-0.0757,-0.0715,-0.0667,-0.0626,-0.0586,-0.0574,-0.0541,-0.0534,-0.048,-0.0507,-0.0434,-0.0466,-0.0441,-0.0426,-0.0423,-0.0418,-0.0449,-0.0402,-0.0315,-0.0306,-0.0413,-0.0415,-0.0416,0,-0.0906,-0.0825,-0.0763,-0.0741,-0.0687,-0.0659,-0.0635,-0.0597,-0.0567,-0.0525,-0.0506,-0.0459,-0.0433,-0.0398,-0.038,-0.04,-0.0309,-0.0333,-0.0299,-0.03,-0.0281,-0.0282,-0.019,-0.0262,-0.0262,-0.0262,-0.0263,0,-0.0827,-0.0774,-0.0742,-0.0704,-0.0645,-0.0627,-0.0569,-0.0547,-0.0513,-0.0471,-0.0466,-0.0427,-0.0405,-0.0364,-0.0349,-0.0293,-0.0281,-0.0271,-0.0268,-0.0272,-0.0274,-0.0257,-0.0262,-0.026,-0.026,-0.0261,-0.0261,0,-0.0765,-0.0741,-0.0674,-0.0629,-0.0617,-0.0575,-0.0538,-0.0502,-0.0482,-0.043,-0.0417,-0.0387,-0.0338,-0.0316,-0.0256,-0.0247,-0.0183,-0.0182,-0.0197,-0.0196,-0.0164,-0.0168,-0.0059,-0.0045,-0.0125,-0.0124,-0.0123,0,-0.0717,-0.0676,-0.0627,-0.0599,-0.0575,-0.0529,-0.05,-0.0481,-0.045,-0.0402,-0.0373,-0.0324,-0.0284,-0.0207,-0.0181,-0.0136,-0.0135,-0.01,-0.0128,-0.0135,-0.0137,-0.0141,-0.0138,-0.0095,-0.0095,-0.0094,-0.0093,0,-0.0634,-0.0625,-0.0582,-0.0535,-0.05,-0.0462,-0.0425,-0.0403,-0.0378,-0.0345,-0.0295,-0.0264,-0.0204,-0.0157,-0.0111,-0.0088,-0.0087,-0.0085,-0.0075,-0.0079,-0.009,-0.0086,-0.0185,-0.0087,-0.0088,-0.0088,-0.0089,-0.0089,-0.0579,-0.0544,-0.0505,-0.0458,-0.0428,-0.0394,-0.0359,-0.0335,-0.0294,-0.0243,-0.0234,-0.0182,-0.0146,-0.0083,-0.0059,-0.0019,-0.0028,-0.0013,-0.001,-0.0007,-0.0006,-0.0096,-0.0011,-0.0011,-0.0011,-0.0011,-0.0011,0,-0.0498,-0.0473,-0.043,-0.0379,-0.0343,-0.0345,-0.0305,-0.0275,-0.0229,-0.0194,-0.0156,-0.01,-0.0055,-0.0025,0.002,0.0046,0.0047,0.0057,0.0054,0.0059,0.0,-0.0014,0.0055,0.0055,0.0055,0.0055,0.0055,0.0055,-0.0452,-0.0393,-0.038,-0.0307,-0.0283,-0.0232,-0.0209,-0.0179,-0.0151,-0.009,-0.0052,-0.0033,-0.0001,0.0046,0.0087,0.0094,0.0109,0.0119,0.0126,0.007,0.0063,0.0057,0.0044,0.0123,0.0123,0.0181,0.0181,0.0182]},{"header":{"parameterUnit":"m.s-1","parameterCategory":1,"la1":30.2991,"la2":30.254,"lo1":-89.0895,"lo2":-89.0444,"dx":0.0017,"dy":0.0017,"nx":28,"ny":28,"refTime":"2022-11-07T09:00:00:Z","depth":0,"parameterNumber":3,"parameterNumberName":"V-component_of_WINDS"},"data":[0,0,0,0,0,0,0,0,0,0,0,0,0,0,0,0,0,0,0,0,0,0,0,0,0,0,0,0,0,0,0,0,0,0,0,0,0,0,0,0,0,0,0,0,0,0,0,0,0,0,0,0,0,0,0,0,0,0,0.7464,0.7463,0,0.7443,0.7443,0.7442,0.742,0.742,0.7419,0.7419,0.7396,0.7396,0.7396,0,0,0,0,0,0,0,0,0,0,0,0,0,0.7482,0.7482,0.7464,0.7463,0.7463,0.7443,0.7443,0.7442,0.742,0.742,0.7419,0.7419,0.7397,0.7396,0.7396,0,0,0,0,0,0,0,0,0,0,0,0,0,0.7469,0.7482,0.7464,0.745,0.7448,0.7443,0.7443,0.7442,0.742,0.742,0.7419,0.7419,0.7397,0.7396,0.7396,0.7402,0,0,0.7394,0.7394,0,0,0,0,0,0,0,0,0.747,0.7469,0.7452,0.7451,0.7449,0.7433,0.7441,0.7429,0.742,0.7431,0.7419,0.7418,0.7409,0.7408,0.7405,0.7401,0.74,0.7394,0.7394,0.7394,0.7394,0,0,0,0,0,0,0,0.7471,0.7469,0.7455,0.7452,0.745,0.7444,0.7441,0.7439,0.7423,0.743,0.7428,0.7426,0.7408,0.7405,0.7404,0.74,0.7394,0.7394,0.7394,0.7393,0.7399,0.74,0,0,0,0,0,0,0.7474,0.747,0.7456,0.7455,0.7459,0.7444,0.7441,0.7439,0.7423,0.742,0.7426,0.7425,0.7406,0.7405,0.7403,0.7408,0.7394,0.7393,0.7393,0.7399,0.7399,0.74,0,0,0,0,0,0,0.7475,0.7473,0.7457,0.7462,0.7459,0.7444,0.7442,0.7439,0.7436,0.742,0.7417,0.7426,0.7406,0.7404,0.7402,0.7407,0.7393,0.7393,0.7398,0.7399,0.74,0.742,0,0,0,0,0,0,0.7475,0.7473,0.7476,0.7462,0.7459,0.7457,0.7442,0.7439,0.7435,0.7433,0.7419,0.7417,0.7405,0.7403,0.7402,0.7406,0.7392,0.7398,0.7399,0.7399,0.7419,0.7421,0.7423,0,0,0,0,0,0.7476,0.7483,0.7477,0.7475,0.7463,0.7458,0.7456,0.7443,0.7436,0.7438,0.7428,0.7417,0.7407,0.7403,0.7402,0.7406,0.7397,0.7398,0.7399,0.7418,0.7421,0.7423,0,0,0,0,0,0,0.7498,0.7481,0.7474,0.7476,0.7469,0.7454,0.7456,0.7447,0.7441,0.7439,0.7423,0.742,0.742,0.7413,0.7409,0.7411,0.7401,0.7401,0.7415,0.7418,0.742,0.7422,0.7392,0,0,0,0,0,0.7503,0.7501,0.7486,0.749,0.7486,0.7472,0.747,0.746,0.7451,0.7448,0.7438,0.7429,0.7424,0.7421,0.7415,0.7418,0.7414,0.742,0.7422,0.7424,0.7425,0.7424,0.7426,0.7403,0.7403,0.7403,0,0,0.7514,0.7504,0.7504,0.7494,0.7487,0.7484,0.747,0.7468,0.7465,0.7447,0.7445,0.7437,0.7427,0.7427,0.7427,0.7421,0.743,0.7426,0.7427,0.7427,0.7425,0.7428,0.743,0.7404,0.7403,0.7403,0,0,0.7531,0.7525,0.7526,0.7519,0.7509,0.7499,0.7499,0.7486,0.748,0.7478,0.7464,0.7461,0.7452,0.7445,0.744,0.7454,0.7443,0.7452,0.7464,0.7464,0.7465,0.7467,0.747,0.7472,0.7453,0.7453,0.7453,0,0.7545,0.7541,0.7528,0.7527,0.7522,0.7506,0.7507,0.7501,0.7489,0.7486,0.748,0.7469,0.7461,0.7458,0.7461,0.7458,0.7457,0.7453,0.7466,0.7468,0.7469,0.7472,0.7474,0.7454,0.7454,0.7454,0.7454,0,0.7559,0.7556,0.7559,0.7547,0.7543,0.7543,0.7529,0.7527,0.7518,0.7508,0.7505,0.7495,0.7486,0.7485,0.7476,0.7481,0.7478,0.7469,0.7459,0.7472,0.7475,0.7476,0.7456,0.7455,0.7455,0.7455,0,0,0.7589,0.757,0.7571,0.7565,0.7552,0.755,0.7548,0.754,0.7538,0.753,0.7527,0.752,0.7512,0.7507,0.7497,0.7497,0.7506,0.7488,0.7487,0.7491,0.7509,0.7515,0.7516,0.7499,0.75,0.75,0.7509,0,0.7603,0.76,0.7588,0.7588,0.7585,0.7569,0.7568,0.7559,0.755,0.7546,0.7536,0.753,0.7521,0.7517,0.7516,0.7505,0.751,0.7505,0.7496,0.7496,0.7498,0.7518,0.7524,0.7534,0.7511,0.7511,0.7511,0,0.7619,0.7612,0.7612,0.7598,0.7596,0.7596,0.7586,0.7583,0.7572,0.7565,0.7559,0.7548,0.7544,0.7535,0.7529,0.7526,0.7522,0.7516,0.7516,0.7514,0.7504,0.7515,0.7537,0.7538,0.7513,0.7513,0.7512,0,0.764,0.763,0.7629,0.7625,0.7609,0.7608,0.7601,0.759,0.7586,0.7578,0.7574,0.7566,0.7561,0.7554,0.7541,0.7536,0.7536,0.7526,0.7529,0.753,0.753,0.753,0.755,0.7529,0.7529,0.7529,0.7529,0,0.7656,0.7656,0.7638,0.7637,0.7636,0.7622,0.7621,0.7613,0.7603,0.76,0.7586,0.7583,0.7566,0.756,0.7549,0.7545,0.7544,0.7537,0.7534,0.7538,0.7539,0.7534,0.7533,0.7529,0.7529,0.7529,0.7529,0,0.7678,0.7666,0.7663,0.7648,0.7644,0.7644,0.7631,0.7629,0.762,0.7615,0.7613,0.7598,0.759,0.7576,0.7565,0.7558,0.7555,0.7551,0.7559,0.7557,0.7561,0.756,0.7578,0.7579,0.7559,0.7559,0.7559,0,0.7689,0.7688,0.7674,0.767,0.7664,0.7659,0.7655,0.764,0.7636,0.7623,0.7622,0.7614,0.7606,0.7595,0.7582,0.7573,0.7568,0.7574,0.7566,0.7569,0.7566,0.7566,0.7565,0.7576,0.7576,0.7576,0.7577,0,0.7708,0.7702,0.7696,0.7688,0.7683,0.7676,0.7668,0.7666,0.7649,0.7645,0.7637,0.7631,0.762,0.7611,0.76,0.7592,0.7581,0.7579,0.758,0.7583,0.7587,0.7584,0.7563,0.7579,0.7579,0.7579,0.7578,0.7578,0.7724,0.7723,0.7712,0.7705,0.7698,0.7691,0.7688,0.7678,0.7671,0.7661,0.7653,0.7646,0.7634,0.7618,0.761,0.7604,0.7599,0.7599,0.7599,0.7599,0.76,0.7589,0.7602,0.7602,0.7602,0.7602,0.7602,0,0.7742,0.7734,0.7728,0.7718,0.7712,0.7704,0.7694,0.769,0.7684,0.7674,0.7667,0.7658,0.7649,0.7636,0.7626,0.7623,0.7617,0.7621,0.762,0.7618,0.7606,0.7606,0.7625,0.7625,0.7625,0.7625,0.7625,0.7625,0.775,0.7747,0.774,0.7733,0.7725,0.7718,0.7713,0.7706,0.7698,0.7688,0.7681,0.7673,0.7661,0.765,0.7641,0.7637,0.7634,0.7638,0.7633,0.7621,0.7619,0.7617,0.7617,0.7638,0.7638,0.7645,0.7645,0.7645]}]]